Regional Weather Roundup
Issued by NWS Boston, MA

Current Version | Previous Version | Graphics & Text | Print | Product List | Glossary On
Versions: 1 2 3 4 5 6 7 8 9 10 11 12 13 14 15 16 17 18 19 20 21 22 23 24 25 26 27
000
ASUS41 KBOX 241204
RWRBOX

REGIONAL WEATHER ROUNDUP
NATIONAL WEATHER SERVICE BOSTON/NORTON MA
800 AM EDT THU JUN 24 2021

NOTE:  "FAIR" INDICATES FEW OR NO CLOUDS BELOW 12,000 FEET WITH NO
SIGNIFICANT WEATHER AND/OR OBSTRUCTIONS TO VISIBILITY.

MAZALL-241300-
EASTERN MASSACHUSETTS

CITY           SKY/WX    TMP DP  RH WIND       PRES   REMARKS
BOSTON         MOSUNNY   64  56  75 SE3       30.41R
6HR MIN TEMP:  59; 6HR MAX TEMP:  65;

BEVERLY        SUNNY     64  56  75 CALM      30.41R
LAWRENCE       SUNNY     63  52  67 CALM      30.43R
BEDFORD        SUNNY     61  56  83 CALM      30.40R
BLUE HILL        N/A     66  49  54 E5        30.40R
NORWOOD        SUNNY     62  56  80 CALM      30.41R
MARSHFIELD     SUNNY     64  55  72 CALM      30.41R
PLYMOUTH       SUNNY     64  58  80 S5        30.41R
TAUNTON        SUNNY     65  57  75 CALM      30.41R
NEW BEDFORD    SUNNY     65  59  81 CALM      30.40R
$$

MAZALL-241300-
CAPE COD AND THE ISLANDS

CITY           SKY/WX    TMP DP  RH WIND       PRES   REMARKS
FALMOUTH       SUNNY     66  57  72 CALM      30.41S
HYANNIS        SUNNY     67  58  72 S3        30.40R
CHATHAM        SUNNY     66  58  75 VRB5      30.43R
PROVINCETOWN   SUNNY     66  60  81 S6        30.42R
NANTUCKET      SUNNY     66  56  70 CALM      30.42R
MARTHAS VNYRD  SUNNY     66  59  78 S3        30.41R
$$

MAZALL-241300-
CENTRAL AND WESTERN MASSACHUSETTS

CITY           SKY/WX    TMP DP  RH WIND       PRES   REMARKS
WORCESTER      SUNNY     64  45  49 VRB3      30.42R
6HR MIN TEMP:  55; 6HR MAX TEMP:  65;

FITCHBURG      SUNNY     61  53  75 CALM      30.42R
ORANGE         SUNNY     54  49  83 CALM      30.43R
SPRINGFIELD    MOSUNNY   57  52  84 CALM      30.40R
WESTFIELD      SUNNY     57  51  80 N3        30.41S
NORTH ADAMS    SUNNY     55  46  71 CALM      30.41S
PITTSFIELD     SUNNY     54  48  80 VRB3      30.40S
$$

RIZALL-241300-
RHODE ISLAND

CITY           SKY/WX    TMP DP  RH WIND       PRES   REMARKS
PROVIDENCE     MOSUNNY   63  57  81 SE3       30.41R
6HR MIN TEMP:  53; 6HR MAX TEMP:  64;

NEWPORT        SUNNY     65  57  75 CALM      30.40S
BLOCK ISLAND   SUNNY     66  56  70 W5        30.41R
SMITHFIELD     SUNNY     67  55  65 CALM      30.41S
WESTERLY       SUNNY     61  58  90 CALM      30.40S
$$

CTZALL-241300-
CONNECTICUT

CITY           SKY/WX    TMP DP  RH WIND       PRES   REMARKS
BRADLEY INTL   MOSUNNY   59  51  75 N5        30.41R
6HR MIN TEMP:  48; 6HR MAX TEMP:  59;

HARTFORD       SUNNY     60  52  74 NE3       30.41R
BRIDGEPORT     SUNNY     64  55  72 N3        30.39R
DANBURY        SUNNY     61  54  77 CALM      30.41R
GROTON         SUNNY     63  56  78 N3        30.40S
NEW HAVEN      SUNNY     64  55  72 N3        30.39R
CHESTER        FAIR      64  57  77 CALM      30.40S
MERIDEN        SUNNY     59  51  75 CALM      30.40S
WILLIMANTIC    SUNNY     56  50  80 CALM      30.42R
OXFORD         SUNNY     60  56  86 CALM      30.41R
$$

MEZ002-015-021-024-NHZ003-005-008-011-012-014-VTZ005-008-241300-
NORTHERN NEW ENGLAND

CITY           SKY/WX    TMP DP  RH WIND       PRES   REMARKS
PORTLAND ME    MOSUNNY   61  54  77 CALM      30.42R
6HR MIN TEMP:  47; 6HR MAX TEMP:  61;

BANGOR ME      MOSUNNY   59  50  72 S3        30.42R
CONCORD NH     SUNNY     56  49  77 CALM      30.42R
MANCHESTER NH  MOSUNNY   60  48  64 CALM      30.40R
NASHUA NH      SUNNY     58  52  80 CALM      30.42R
PORTSMOUTH NH  MOSUNNY   63  49  59 CALM      30.42R
JAFFREY NH     SUNNY     58  53  84 CALM      30.42R
KEENE NH       SUNNY     51  49  92 CALM      30.43R
BURLINGTON VT  MOSUNNY   62  46  55 S8        30.35R
MT. WASHINGTON NOT AVBL
$$

NYZ052-076-241300-
EASTERN NEW YORK

CITY           SKY/WX    TMP DP  RH WIND       PRES   REMARKS
ALBANY         MOSUNNY   56  50  80 SE3       30.38S
6HR MIN TEMP:  45; 6HR MAX TEMP:  56;

NEW YORK CITY  MOSUNNY   64  56  75 NE7       30.38R
6HR MIN TEMP:  63; 6HR MAX TEMP:  66;

$$

ANZALL-241300-
MARINE OBSERVATIONS

STATION/POSITION TIME  TEMP    WIND        PRES    VSBY  WAVE
                       AIR SEA DIR/SP/G                  HT/PER
                 (UTC) (F)     (DEG/KT/KT) (MB)    (MI)  (FT/S)
BOSTON BUOY      1150   58                 1029.8R         2/ 9
BUZZARDS BAY     1100          260/  1/  1 1030.4R
NANTUCKET SOUND  1140      68                N/A
MASS BAY-STELLWA NOT AVBL
ISLE OF SHOALS   1100   57      CALM  /  1 1028.9R
S OF BLOCK IS    1126      65                N/A           3/14
$$

......................KEY.........................
  SKY/WX - SKY CONDITION/PRESENT WEATHER
  TMP    - TEMPERATURE IN FAHRENHEIT
  DWPT   - DEWPOINT IN FAHRENHEIT
  RH     - RELATIVE HUMIDITY IN PERCENT
  WIND   - DIRECTION AND SPEED IN MPH
  PRES   - MEAN SEA LEVEL PRESSURE IN INCHES OF HG
  WCI    - WIND CHILL INDEX
  VSB    - VISIBILITY IN MILES
  HX     - HEAT INDEX
  TC     - TEMPERATURE IN CELSIUS
  VRB    - VARIABLE WIND DIRECTION
  N/A    - NOT AVAILABLE



USA.gov is the U.S. government's official web portal to all federal, state and local government web resources and services.